LogoCoinalyze
    Ad-Free Version Home Markten Financieringspercentages
    Futures data
    • Aggregated data (Munten)
    • Individuele grafieken
    • Globale grafieken
    Meldingen
    TA
    Bitcoin Ethereum BNB Ripple Tron Dogecoin ZCash Monero UNUS SED LEO Chainlink Cardano Stellar Lumens Bitcoin Cash Litecoin Hedera Cronos Polkadot Ethereum Classic Algorand Cosmos Quant VeChain Dash Bitcoin SV BitTorrent Terra Tezos Decred Iota The Graph THETA MultiversX Decentraland NEO Chiliz Golem Basic Attention Token Horizen Qtum DigiByte 0x Beam RIF Token FTX Token Holo FUNToken aelf Zilliqa Ontology Nano Enjin Coin Ravencoin Mask Network Verge Siacoin Status WINk Waves IoTeX iExec RLC Power Ledger Steem Kyber Network Crystal Lisk Ark Ardor WOO Network IOST WAX Icon Storj Loopring Wanchain Bitcoin Diamond Augur AdEx Bitcoin Gold OmiseGO NEM MonaCoin BitShares Ren Komodo V Systems Nuls Mithril SOLVE Maker EOS Aion Nebulas HedgeTrade Bread Fetch.ai TomoChain Polygon Fantom Waltonchain GXChain Bytom Metaverse ETP MaidSafeCoin QASH
    Rangschikken op:
    Meer
    • API
    • Candlestick-patronen
    • Doneer
    • Contact
    • Sitemap
    • Privacy Policy
    • Disclaimer
    • Theme:
    Nederlands
    • English
    • Français
    • Русский
    • Deutsch
    • Türkçe
    • Português (BR)
    • Español
    • 한국어
    • 简体中文
    • 日本語
     
    Aanmelden / Registreren
    Markets/ Pepe/ PEPE naar USD/ PEPEUSD Bitfinex
    Trades
    WL
    Chat
    Stats
    Nieuws
    ⦷
    AAA
    0.00000345 21629493.97799000 10:40:01
    0.00000345 785712.02084618 10:34:56
    0.00000345 1208179.56291317 10:34:56
    0.00000345 21629493.97799000 10:34:56
    0.00000346 21629493.97799000 10:08:54
    0.00000346 641121.46501868 09:41:44
    0.00000346 985429.40041047 09:41:44
    0.00000347 65104101.43856000 09:20:54
    0.00000347 21629493.97799000 09:19:38
    0.00000347 21629493.97799000 08:51:46
    0.00000347 1160488.79022586 08:49:32
    0.00000347 1316882.16931158 08:49:32
    0.00000348 473140.41838902 08:22:23
    0.00000349 1372716.42146438 08:11:24
    0.00000349 2111001.48777699 08:11:24
    0.00000346 1978107.80663847 07:53:23
    0.00000346 3041588.17636418 07:53:23
    0.00000348 21629493.97799000 07:43:59
    0.00000347 21629493.97799000 07:33:56
    0.00000346 14179081.99999800 06:19:32
    0.00000345 21629493.97799000 05:54:17
    0.00000342 490137.74853265 05:23:27
    0.00000342 753596.64409524 05:23:27
    0.00000343 773300.47122156 05:21:43
    0.00000343 623503.16041779 05:21:43
    0.00000344 21629493.97799000 05:20:15
    0.00000344 419514.22301727 05:20:15
    0.00000346 21629493.97799000 04:55:18
    0.00000344 77673564.68652229 04:36:26
    0.00000344 729396.50359082 04:36:21
    0.00000346 21629493.97799000 04:10:14
    0.00000347 21629493.97799000 03:20:40
    0.00000347 21629493.97799000 03:17:33
    0.00000345 21629493.97799000 02:22:54
    0.00000343 2340678.05742714 02:04:01
    0.00000346 21629493.97799000 01:43:05
    0.00000346 21629493.97799000 01:25:19
    0.00000345 582587.57997035 01:17:21
    0.00000344 789663.94565075 01:13:20
    0.00000344 1658203.24611324 01:13:20
    0.00000343 21629493.97799000 01:10:52
    0.00000341 21629493.97799000 01:03:59
    0.00000341 7340860.50966665 01:00:50
    0.00000341 0.00000002 01:00:50
    0.00000341 443071.52001088 01:00:50
    0.00000341 21629493.97799000 01:00:50
    0.00000341 21629493.97799000 00:31:07
    0.00000342 1480399.24965685 00:19:21
    0.00000342 2275512.67377221 00:19:21
    0.00000344 395833.14167634 00:03:50
    0.00000340 449029.63808548 22:49:21
    0.00000340 690664.24348479 22:49:21
    0.00000341 1058280.22016388 21:53:30
    0.00000341 1168366.09409356 21:53:30
    0.00000341 21629493.97799000 21:26:02
    0.00000342 21629493.97799000 20:55:58
    0.00000340 459649.40970629 20:22:22
    0.00000339 526391.63259881 20:18:46
    0.00000339 809412.86604636 20:18:46
    0.00000340 567005.07957035 20:13:22
    0.00000340 1415932.92137324 20:13:22
    0.00000341 977850.19834166 20:02:22
    0.00000340 431369.23869878 19:26:19
    0.00000341 21629493.97799000 19:14:53
    0.00000341 726311.55041903 19:10:21
    0.00000341 819208.05608433 19:10:21
    0.00000340 638642.62215620 18:48:21
    0.00000340 21629493.97799000 18:41:52
    0.00000340 37868472.04289730 18:21:23
    0.00000340 21629493.97799000 18:21:23
    0.00000341 7664400.35625856 18:14:32
    0.00000341 21629493.97799000 18:14:32
    0.00000341 118198731.03448300 18:14:32
    0.00000340 416412.09913504 18:14:21
    0.00000339 790948.76163501 18:07:58
    0.00000339 1182933.66262180 17:34:01
    0.00000337 502339.62886774 17:21:20
    0.00000338 472326.60354930 17:17:26
    0.00000339 21629493.97799000 16:59:33
    0.00000339 444070.97319519 16:57:17
    0.00000339 682856.95216977 16:57:17
    0.00000340 777092.87388603 16:55:50
    0.00000340 21629493.97799000 16:41:37
    0.00000340 749158.85078668 16:41:37
    0.00000340 1151932.88112568 16:41:37
    0.00000341 792103.74830830 16:36:32
    0.00000341 514777.95916682 16:36:32
    0.00000342 2116082.12030643 16:12:29
    0.00000342 3253490.73039346 16:12:29
    0.00000340 777092.87388599 16:02:43
    0.00000342 102200000.00000000 15:47:37
    0.00000341 21629493.97799000 15:46:26
    0.00000341 21629493.97799000 15:45:36
    0.00000338 749368.73591023 15:29:39
    0.00000338 1152279.30241674 15:29:39
    0.00000338 21629493.97799000 15:26:54
    0.00000339 582297.09921443 15:20:17
    0.00000339 895855.40321207 15:20:17
    0.00000340 480394.99473810 15:07:16
    0.00000340 739699.44610536 15:07:16
    Afmelden
    AAA
    Help
    🙂 🤣 😎 🤗 😛 😉 😜 🤑 🤔 😑 😴 😕 🙃 😲 😇 🙁 😢 😬 😟 😠 🕺 🏃 💪 ✌ 👌 👍 👎 👏 👋 🤝 🍺 🍻 🐋 🐟 🦈 🗽 🚄 ✈ 🛑 🚀 🏦 🌚 ⭐ 🌞 ⚡ 🏆 💰 💲 🔨 ❓ ❗ 💯 🔶 🏁
    ☺
    Aanmelden of Registreren en chat
    24 Uur
    Verandering
    +1.47%
    Volume
    4,380,329,586
    Hoog
    0.00000349
    Laag
    0.00000337
    7 Dagen
    Verandering
    -10.16%
    Volume
    38,055,560,286
    Hoog
    0.00000400
    Laag
    0.00000337
    30 Dagen
    Verandering
    +19.38%
    Volume
    229,504,678,367
    Hoog
    0.00000454
    Laag
    0.00000254
    DOGE, SHIB, PEPE, or Something Else: Which Meme Coin Can Make History in September? (3 AIs Weigh In)
    "DOGE remains the most likely to record the largest move in dollar terms and lead the entire sector," ChatGPT stated.
    cryptopotato.com
    Sept 3, 2026 00:41
    Pepe price rallies 25% as whale demand and futures interest surge
    Key takeaways Pepe has gained 25% this week, including a combined 22% advance over the previous two days. Seven whale transactions worth more than $1 million each occurred Thursday, the highest...
    coinjournal.net
    Aug 21, 2026 08:41
    PEPE Supply on Exchanges Just Took a Massive Hit – What’s Next?
    A drop in PEPE exchange balances has added to bullish expectations despite muted trader interest.
    cryptopotato.com
    Aug 6, 2026 20:02
    PEPE Exchange Outflows Hit Nearly 2-Year High as Whales Accumulate
    Pepe (PEPE) recorded its largest single-day exchange outflow since November 2024, with 4.54 trillion tokens leaving trading platforms, signaling that holders are moving supply away from immediate...
    beincrypto.com
    Aug 6, 2026 04:57
    Meme Coin Based on White House Shooter Conspiracy Rallies 320%
    $HENRY surged 300% after a 2023 Pepe tweet appeared to name the White House shooter, fueling a viral time-travel meme. The post Meme Coin Based on White House Shooter Conspiracy Rallies 320%...
    beincrypto.com
    Apr 27, 2026 16:11
    PEPE surges 4% as market sentiment improves, eyes Key resistance breakout
    Key takeaways Pepe extends gains on Wednesday, stretching its rally from the 50-day EMA. Derivatives data show heightened retail activity as risk-on sentiment returns to the market. Pepe (PEPE) is...
    coinjournal.net
    Apr 22, 2026 11:44
    Why The PEPE Price Could Stage A 55X Rally To Reach New $0.0001 ATH
    The PEPE price has now started to edge back into bullish conversations after the recent inflows into the crypto market. The last time PEPE’s weekly chart printed the kind of structure now...
    newsbtc.com
    Apr 21, 2026 15:30
    Pepe (PEPE) surges 9%, drawing interest from whales
    Key takeaways PEPE is up 9% in the last 24 hours, making it one of the best performers among the top 50 cryptocurrencies by market cap. The rally comes amid renewed interest from whales and retail...
    coinjournal.net
    Apr 16, 2026 07:40
    Murad Says SPX6900 (SPX) Is Primed for a Rally — Is He Right This Time?
    Crypto influencer Murad Mahmudov claims SPX6900 (SPX) is stabilizing at the same market cap level where Dogecoin (DOGE) and Pepe (PEPE) consolidated before their explosive rallies. The...
    beincrypto.com
    Apr 5, 2026 21:36
    The Shiba Inu Of This Cycle: Analyst Shares Why It Is Better To Buy PEPE Now
    In the bull market cycle of 2021-2022, the Shiba Inu meme coin made waves in a way that changed the face of meme coins forever. This came after Dogecoin’s initial 36,000% rally, and Shiba Inu...
    newsbtc.com
    Apr 4, 2026 07:30
    PEPE Explodes by 18% Amid Altcoin Rally, BTC Tapped $74K: Market Watch
    The frog-themed meme coin is today's biggest gainer, followed by TAO, DOT, and BONK.
    cryptopotato.com
    Mar 16, 2026 10:56
    Should PEPE traders brace for volatility as short squeeze potential builds?
    The memecoin market has seen its collective market capitalization drop by 48% over the past year, and 6.9% over the past month, according to CoinMarketCap. According to Glassnode, the memecoin...
    ambcrypto.com
    Mar 7, 2026 18:00
    Typ de opdracht simpelweg in de chat. Vervang nick1 door de echte nick
    • /ignore nick1 Negeer een chatgebruiker
    • /unignore nick1 Een chatgebruiker niet meer negeren
    • /ignorelist Toon chatgebruikers die je negeert